TimeCST,TemperatureF,Dew PointF,Humidity,Sea Level PressureIn,VisibilityMPH,Wind Direction,Wind SpeedMPH,Gust SpeedMPH,PrecipitationIn,Events,Conditions,WindDirDegrees,DateUTC
12:51 AM,32.0,28.0,85,30.30,5.0,NW,4.6,-,N/A,,Clear,320,2013-01-02 06:51:00
1:51 AM,30.2,26.6,86,30.29,5.0,NNW,4.6,-,N/A,,Clear,340,2013-01-02 07:51:00
2:51 AM,30.9,27.0,85,30.30,6.0,NNW,6.9,-,N/A,,Partly Cloudy,330,2013-01-02 08:51:00
3:51 AM,32.0,26.6,80,30.30,6.0,NNW,5.8,-,N/A,,Haze,330,2013-01-02 09:51:00
4:51 AM,30.9,27.0,85,30.30,6.0,NW,5.8,-,N/A,,Clear,310,2013-01-02 10:51:00
5:51 AM,30.0,27.0,88,30.30,6.0,WNW,5.8,-,N/A,,Clear,300,2013-01-02 11:51:00
6:51 AM,32.0,27.0,82,30.31,6.0,NW,5.8,-,N/A,,Haze,320,2013-01-02 12:51:00
7:51 AM,32.0,27.0,82,30.33,5.0,NW,8.1,-,N/A,,Haze,310,2013-01-02 13:51:00
8:51 AM,33.8,28.4,81,30.35,5.0,NW,10.4,-,N/A,,Haze,310,2013-01-02 14:51:00
9:51 AM,35.1,28.0,76,30.37,5.0,NNW,10.4,-,N/A,,Haze,340,2013-01-02 15:51:00
10:51 AM,37.0,28.0,70,30.36,5.0,NNW,10.4,-,N/A,,Haze,330,2013-01-02 16:51:00
11:51 AM,37.9,28.0,68,30.34,7.0,NNW,10.4,-,N/A,,Clear,340,2013-01-02 17:51:00
12:51 PM,39.9,28.0,63,30.31,7.0,NNW,11.5,-,N/A,,Clear,340,2013-01-02 18:51:00
1:51 PM,41.0,28.4,61,30.27,8.0,North,10.4,-,N/A,,Clear,360,2013-01-02 19:51:00
2:51 PM,41.0,28.0,60,30.27,8.0,North,8.1,-,N/A,,Clear,350,2013-01-02 20:51:00
3:51 PM,41.0,27.0,57,30.28,8.0,NNW,8.1,-,N/A,,Clear,340,2013-01-02 21:51:00
4:51 PM,41.0,26.6,57,30.27,8.0,North,4.6,-,N/A,,Clear,10,2013-01-02 22:51:00
5:51 PM,39.0,28.0,65,30.28,7.0,Calm,Calm,-,N/A,,Clear,0,2013-01-02 23:51:00
6:51 PM,35.1,28.0,76,30.30,7.0,WNW,3.5,-,N/A,,Clear,300,2013-01-03 00:51:00
7:51 PM,35.1,28.0,76,30.32,7.0,Calm,Calm,-,N/A,,Clear,0,2013-01-03 01:51:00
8:51 PM,34.0,27.0,75,30.32,7.0,NNW,3.5,-,N/A,,Clear,340,2013-01-03 02:51:00
9:51 PM,32.0,27.0,82,30.34,7.0,North,3.5,-,N/A,,Clear,350,2013-01-03 03:51:00
10:51 PM,28.9,25.0,85,30.35,6.0,Calm,Calm,-,N/A,,Clear,0,2013-01-03 04:51:00
11:51 PM,27.0,25.0,92,30.36,6.0,NNW,3.5,-,N/A,,Clear,340,2013-01-03 05:51:00